Location: Artiguedieu
(43.5000°N, 0.5454°E)
Time: 09:44:56
(UTC+00:00)

Explorer 7 - Pass Details

Date: 03 August 2021
Orbit: 484 x 676 km, 50.3° (Epoch: 22 September)

Event Time Altitude Azimuth Distance (km) Brightness Sun altitude
Rises 03:41:01 0° 219° (SW) 2,532 - -11.4°
Reaches altitude 10° 03:43:14 10° 211° (SSW) 1,659 - -11.1°
Exits shadow 03:43:51 14° 207° (SSW) 1,429 8.4 -11.0°
Maximum altitude 03:46:45 40° 141° (SE) 740 7.5 -10.6°
Drops below altitude 10° 03:50:22 10° 72° (ENE) 1,712 10.7 -10.1°
Sets 03:52:41 0° 64° (ENE) 2,625 12.3 -9.7°
